"TOA5","AWS1","CR1000","7964","CR1000.Std.14","CPU:AWS1_114.CR1","64363","TBL110"
"TIMESTAMP","RECORD","Wind_spd_WVc(1)","Wind_spd_WVc(2)","Air_Temp_Avg","Humidity_Avg","SW_upper_Wm2_Avg","Rain_Tot","Press_Avg","Issui_Tot","Depth_cm","SR50A_Raw","Quality","Ground_Temp_Avg(1)","Ground_Temp_Avg(2)","SW_lower_Wm2_Avg","Albedo_Avg","SWC_per(1)","SWC_per(2)","Period(1)","Period(2)"
"TS","RN","","","","","","","","","","","","","","","","","","",""
"","","WVc","WVc","Avg","Avg","Avg","Tot","Avg","Tot","Smp","Smp","Smp","Avg","Avg","Avg","Avg","Smp","Smp","Smp","Smp"
"2016-11-26 00:00:00",263581,0.303,155.7,-0.45,78.59,0,0,870.3746,0,-2.454,3.209,209,5.497,6.987,0.5991566,0,52.16,59.85,33.83,35.64
"2016-11-26 00:10:00",263582,0.876,169.8,-0.84,83.4,0,0,870.364,0,-2.056,3.204,201,5.443,6.968,0.4019658,0,52.16,59.85,33.83,35.64
"2016-11-26 00:20:00",263583,0.837,159.5,-0.536,80.1,0,0,870.1194,0,-2.307,3.206,192,5.439,6.964,0.7129204,0,52.16,59.85,33.83,35.64
"2016-11-26 00:30:00",263584,1.23,179.7,-0.258,76.69,0,0,870.1194,0,-2.16,3.202,206,5.439,6.944,0.8721899,0,52.16,59.85,33.83,35.64
"2016-11-26 00:40:00",263585,0.651,183.9,-0.027,73.8,0,0,870.1194,0,-1.986,3.2,196,5.439,6.924,0.8266844,0,52.16,59.85,33.83,35.64
"2016-11-26 00:50:00",263586,0.491,147.5,0.101,72.52,0,0,870.0605,0,-2.061,3.2,198,5.426,6.917,0.9707854,0,52.16,59.85,33.83,35.64
"2016-11-26 01:00:00",263587,0.679,183.9,0.078,72.31,0,0,869.8813,0,-2.112,3.2,196,5.39,6.927,0.7242969,0,52.16,59.85,33.83,35.64
"2016-11-26 01:10:00",263588,0.247,338.5,0.099,71.65,0,0,869.9698,0,-2.01,3.2,198,5.356,6.934,0.8494372,0,52.1,59.85,33.81,35.64
"2016-11-26 01:20:00",263589,0.308,35.11,0.329,69.51,0,0,870.2565,0,-2.714,3.205,202,5.358,6.935,1.217274,0,52.16,59.79,33.83,35.63
"2016-11-26 01:30:00",263590,0.273,22.03,0.218,70.6,0,0,870.4799,0,-2.362,3.202,203,5.356,6.916,0.9252798,0,52.1,59.85,33.81,35.64
"2016-11-26 01:40:00",263591,0.227,134.9,0.114,71.46,0,0,870.6106,0,-2.51,3.206,196,5.38,6.892,0.8532293,0,52.16,59.79,33.83,35.63
"2016-11-26 01:50:00",263592,0.705,204.1,-0.159,73.34,0,0,870.5263,0,-2.109,3.203,198,5.424,6.876,0.728089,0,52.16,59.85,33.83,35.64
"2016-11-26 02:00:00",263593,0.701,191.5,-0.509,75.9,0,0,870.5979,0,-2.704,3.211,190,5.435,6.876,0.3071626,0,52.1,59.85,33.81,35.64
"2016-11-26 02:10:00",263594,0.889,199.5,-0.55,75.73,0,0,870.4525,0,-3.556,3.218,198,5.435,6.878,0.4891848,0,52.16,59.79,33.83,35.63
"2016-11-26 02:20:00",263595,0.965,190,-0.621,75.63,0,0,870.2818,0,-2.555,3.209,196,5.428,6.896,0.3981737,0,52.16,59.79,33.83,35.63
"2016-11-26 02:30:00",263596,1.01,173.9,-0.767,76.19,0,0,870.246,0,-3.176,3.217,195,5.369,6.891,0.2578649,0,52.1,59.85,33.81,35.64
"2016-11-26 02:40:00",263597,1.105,169.9,-0.846,77.07,0,0,870.1132,0,-3.153,3.216,191,5.352,6.902,0.2882019,0,52.1,59.79,33.81,35.63
"2016-11-26 02:50:00",263598,0.67,166.6,-0.838,77.07,0,0,870.1111,0,-2.755,3.211,201,5.352,6.907,0.3033704,0,52.1,59.79,33.81,35.63
"2016-11-26 03:00:00",263599,0.716,186.2,-0.502,74.9,0,0,870.1258,0,-2.856,3.211,195,5.356,6.91,0.6939598,0,52.1,59.79,33.81,35.63
"2016-11-26 03:10:00",263600,0.307,194.3,-0.407,74.18,0,0,870.4188,0,-2.759,3.209,189,5.347,6.91,0.553651,0,52.1,59.79,33.81,35.63
"2016-11-26 03:20:00",263601,0.159,232.5,-0.044,71.53,0,0,870.6359,0,-2.962,3.209,195,5.325,6.906,0.8342686,0,52.16,59.79,33.83,35.63
"2016-11-26 03:30:00",263602,0.075,7.586,0.019,70.88,0,0,870.6949,0,-4.162,3.221,192,5.325,6.899,0.7584261,0,52.1,59.79,33.81,35.63
"2016-11-26 03:40:00",263603,0.474,307.8,0.05,71.07,0,0,871.283,0,-2.81,3.208,194,5.337,6.852,0.8759821,0,52.1,59.79,33.81,35.63
"2016-11-26 03:50:00",263604,0.437,55.27,-0.601,74.79,0,0,871.5253,0,-2.898,3.216,194,5.33,6.839,0.1516852,0,52.1,59.79,33.81,35.63
"2016-11-26 04:00:00",263605,0.65,99.5,-0.934,76.7,0,0,870.4547,0,-3.026,3.216,188,5.277,6.826,0.204775,0,52.1,59.79,33.81,35.63
"2016-11-26 04:10:00",263606,0.635,49.6,-0.927,76.38,0,0,870.6042,0,-3.256,3.215,196,5.265,6.825,0.4019658,0,52.1,59.79,33.81,35.63
"2016-11-26 04:20:00",263607,0.204,230.5,-0.133,70.96,0,0,870.5684,0,-3.907,3.221,184,5.267,6.824,1.160392,0,52.1,59.79,33.81,35.63
"2016-11-26 04:30:00",263608,0.319,172.4,-0.563,73.4,0,0,870.4947,0,-3.656,3.219,195,5.284,6.827,0.5612353,0,52.1,59.79,33.81,35.63
"2016-11-26 04:40:00",263609,0.186,55.37,-1.003,75.85,0,0,870.5979,0,-2.898,3.216,196,5.307,6.83,0.09480325,0,52.1,59.79,33.81,35.63
"2016-11-26 04:50:00",263610,0.679,41.95,-0.73,73.38,0,0,870.7834,0,-2.707,3.21,200,5.253,6.761,0.7432575,0,52.1,59.79,33.81,35.63
"2016-11-26 05:00:00",263611,0.269,26.97,-0.592,72.21,0,0,870.8087,0,-2.779,3.212,183,5.226,6.746,0.5157297,0,52.1,59.79,33.81,35.63
"2016-11-26 05:10:00",263612,0.544,204.9,-0.806,73.77,0,0,870.6296,0,-2.896,3.217,194,5.229,6.749,0.3678366,0,52.1,59.79,33.81,35.63
"2016-11-26 05:20:00",263613,0.493,211,-1.161,75.86,0,0,870.6253,0,-2.751,3.213,204,5.256,6.778,0.2654491,0,52.05,59.79,33.8,35.63
"2016-11-26 05:30:00",263614,0.601,189.1,-1.114,75.29,0,0,870.4947,0,-2.998,3.217,186,5.262,6.794,0.4057579,0,52.1,59.79,33.81,35.63
"2016-11-26 05:40:00",263615,0.983,201.8,-1.058,75,0,0,870.2354,0,-2.751,3.213,200,5.239,6.803,0.3640445,0,52.05,59.79,33.8,35.63
"2016-11-26 05:50:00",263616,0.63,259,-0.725,73.42,0,0,870.3197,0,-2.706,3.21,199,5.182,6.814,0.6105329,0,52.1,59.73,33.81,35.62
"2016-11-26 06:00:00",263617,0.627,322,-0.519,71.74,0,0,870.2291,0,-3.031,3.213,187,5.179,6.808,0.5384825,0,52.1,59.73,33.81,35.62
"2016-11-26 06:10:00",263618,0.439,321.3,-0.401,71.7,0,0,870.3323,0,-2.707,3.209,193,5.194,6.805,0.5081455,0,52.05,59.73,33.8,35.62
"2016-11-26 06:20:00",263619,0.301,165.1,-1.07,76.08,0,0,870.5073,0,-2.668,3.216,202,5.218,6.814,0.04929769,0,52.1,59.79,33.81,35.63
"2016-11-26 06:30:00",263620,0,0,-2.058,81.2,0,0,870.8045,0,-2.311,3.216,195,5.19,6.824,0,0,52.05,59.73,33.8,35.62
"2016-11-26 06:40:00",263621,0.003,120.9,-2.684,84.8,0,0,870.6379,0,-2.322,3.222,201,5.176,6.822,0.02275278,0,52.05,59.73,33.8,35.62
"2016-11-26 06:50:00",263622,0.057,150,-2.747,86.4,0.09832422,0,870.6232,0,-2.625,3.223,203,5.178,6.819,1.308285,0.785,52.1,59.73,33.81,35.62
"2016-11-26 07:00:00",263623,0.359,173.5,-2.969,87.2,3.024453,0,870.5031,0,-2.577,3.222,189,5.121,6.785,2.33216,0.936,52.05,59.79,33.8,35.63
"2016-11-26 07:10:00",263624,0.186,191.6,-2.7,85.6,8.101916,0,870.775,0,-2.825,3.225,197,5.099,6.786,3.538058,0.443,52.05,59.73,33.8,35.62
"2016-11-26 07:20:00",263625,0.093,190.4,-2.92,86.9,11.48034,0,871.1776,0,-2.427,3.221,198,5.123,6.783,3.879349,0.339,52.05,59.79,33.8,35.63
"2016-11-26 07:30:00",263626,0.34,191.4,-3.138,88.3,15.28352,0,871.2281,0,-2.523,3.223,185,5.095,6.794,4.743955,0.31,52.1,59.73,33.81,35.62
"2016-11-26 07:40:00",263627,0.075,197.4,-2.803,88.3,23.37363,0,871.3652,0,-2.409,3.218,184,5.077,6.796,13.10181,0.555,52.05,59.79,33.8,35.63
"2016-11-26 07:50:00",263628,0.218,152.6,-1.873,84.6,27.38526,0,871.3757,0,-2.291,3.214,204,5.077,6.782,17.77371,0.649,52.05,59.73,33.8,35.62
"2016-11-26 08:00:00",263629,0.226,91.7,-0.899,80.5,32.09303,0,871.5106,0,-2.93,3.213,201,5.052,6.755,20.36374,0.636,52.1,59.73,33.81,35.62
"2016-11-26 08:10:00",263630,0.146,159,-0.921,81,32.33294,0,871.6223,0,-2.904,3.213,199,5.044,6.745,22.61247,0.699,52.1,59.73,33.81,35.62
"2016-11-26 08:20:00",263631,0.205,134.2,-0.714,80.1,33.92972,0,871.637,0,-2.255,3.206,201,5.034,6.768,23.95489,0.706,52.05,59.79,33.8,35.63
"2016-11-26 08:30:00",263632,0.408,126.3,-0.27,80.1,35.88047,0,871.637,0,-2.161,3.202,189,5.023,6.795,25.48312,0.71,52.05,59.73,33.8,35.62
"2016-11-26 08:40:00",263633,0.318,128.8,0.302,79.6,39.73085,0,871.637,0,-1.865,3.195,197,5.012,6.819,25.7296,0.65,52.05,59.73,33.8,35.62
"2016-11-26 08:50:00",263634,0.472,131.6,0.9,77.86,39.12518,0,871.6349,0,-2.066,3.194,200,5.006,6.764,25.66134,0.656,52.05,59.67,33.8,35.6
"2016-11-26 09:00:00",263635,0.638,121.5,1.34,73.33,45.41399,0,871.4284,0,-1.868,3.19,208,5.006,6.744,25.43382,0.586,52.05,59.67,33.8,35.6
"2016-11-26 09:10:00",263636,0.443,139.8,1.793,68.12,56.72128,0,871.3799,0,-2.722,3.196,193,5.006,6.739,25.14941,0.486,52.05,59.67,33.8,35.6
"2016-11-26 09:20:00",263637,0.38,106.6,2.337,62.86,42.8615,0,871.3652,0,-2.998,3.197,204,5.006,6.739,26.22258,0.612,52.05,59.67,33.8,35.6
"2016-11-26 09:30:00",263638,0.482,60.34,2.26,62.1,55.70264,0,871.2033,0,-2.772,3.196,184,5.006,6.739,26.20362,0.491,52.05,59.67,33.8,35.6
"2016-11-26 09:40:00",263639,0.323,342,1.965,64.29,44.66671,0,871.1096,0,-3.071,3.199,193,5.004,6.738,27.33746,0.612,52.05,59.67,33.8,35.6
"2016-11-26 09:50:00",263640,0.52,312.8,2.075,63.93,45.24717,0,871.2774,0,-1.858,3.187,200,4.995,6.725,28.83051,0.637,52.05,59.67,33.8,35.6
"2016-11-26 10:00:00",263641,0.62,307.2,1.839,66.59,52.12547,0,871.275,0,-2.245,3.192,198,4.975,6.706,30.33347,0.59,52.05,59.73,33.8,35.62
"2016-11-26 10:10:00",263642,0.507,322.2,1.962,66.59,56.76862,0,871.2943,0,-1.932,3.187,201,4.953,6.685,32.39718,0.585,52.05,59.73,33.8,35.62
"2016-11-26 10:20:00",263643,0.447,292.7,2.372,65.48,141.0829,0.5,871.1063,0,-2.175,3.186,203,4.934,6.666,34.55201,0.402,51.99,59.67,33.79,35.6
"2016-11-26 10:30:00",263644,0.557,311.9,2.601,65.78,75.99223,0,871.072,0,-1.568,3.183,203,4.923,6.655,35.47175,0.546,51.99,59.67,33.79,35.6
"2016-11-26 10:40:00",263645,0.708,308.2,2.597,68.17,247.451,0,870.9454,0,-1.616,3.179,195,4.919,6.65,40.13771,0.242,52.49,59.67,33.91,35.6
"2016-11-26 10:50:00",263646,0.449,116.2,4.046,61.63,71.7288,0,870.5367,0,-1.41,3.171,199,4.917,6.649,50.24009,0.743,52.05,59.67,33.8,35.6
"2016-11-26 11:00:00",263647,0.277,326.7,4.121,60.57,133.813,0,870.2712,0,-1.762,3.174,223,4.917,6.644,57.22274,0.716,51.99,59.67,33.79,35.6
"2016-11-26 11:10:00",263648,0.667,314.9,3.851,65.14,169.8818,0,870.1647,0,-1.639,3.176,233,4.917,6.618,60.73682,0.412,52.05,59.73,33.8,35.62
"2016-11-26 11:20:00",263649,0.351,333.7,4.051,65.13,172.5379,0,870.0609,0,-1.574,3.172,225,4.891,6.648,63.6502,0.407,51.99,59.67,33.79,35.6
"2016-11-26 11:30:00",263650,0.268,277.6,4.562,61.94,392.9749,0,869.7467,0,-2.451,3.176,199,4.856,6.605,59.5671,0.155,52.05,59.67,33.8,35.6
"2016-11-26 11:40:00",263651,0.398,342.6,4.842,62.1,298.2277,0,869.5162,0,-2.342,3.178,217,4.845,6.609,56.72957,0.195,51.99,59.67,33.79,35.6
"2016-11-26 11:50:00",263652,0.615,316.8,4.206,68.92,366.475,0,869.5148,0,-1.915,3.176,208,4.813,6.588,57.51839,0.165,51.99,59.67,33.79,35.6
"2016-11-26 12:00:00",263653,0.492,323.2,3.886,72.58,467.2793,0,869.365,0,-1.848,3.178,198,4.77,6.55,58.73661,0.13,51.99,59.67,33.79,35.6
"2016-11-26 12:10:00",263654,0.381,294.1,3.383,75.99,505.002,0,869.5338,0,-1.842,3.18,197,4.755,6.473,57.17104,0.114,52.05,59.67,33.8,35.6
"2016-11-26 12:20:00",263655,0.673,302.6,3.255,77.65,408.7263,0,869.7819,0,-1.786,3.177,199,4.755,6.433,51.17622,0.126,51.99,59.67,33.79,35.6
"2016-11-26 12:30:00",263656,0.386,326,3.85,74.95,342.1026,0,869.8691,0,-1.985,3.176,202,4.772,6.43,43.75827,0.128,51.99,59.61,33.79,35.59
"2016-11-26 12:40:00",263657,0.292,306,3.929,73.32,350.9927,0.5,870.0436,0,-2.29,3.182,194,4.778,6.464,34.58677,0.102,51.99,59.61,33.79,35.59
"2016-11-26 12:50:00",263658,0.258,340.2,4.389,69.47,340.1918,0,869.8415,0,-2.133,3.175,197,4.764,6.507,28.87027,0.086,51.99,59.67,33.79,35.6
"2016-11-26 13:00:00",263659,0.244,341.2,4.666,69.27,134.9397,0,869.7888,0,-2.028,3.171,196,4.717,6.51,27.38149,0.225,52.05,59.61,33.8,35.59
"2016-11-26 13:10:00",263660,0.22,245.9,5.222,63.59,151.0012,0,869.513,0,-1.72,3.165,202,4.694,6.474,25.86618,0.177,51.99,59.67,33.79,35.6
"2016-11-26 13:20:00",263661,0.342,200.1,5.768,57.76,184.7469,0,869.513,0,-2.172,3.168,201,4.694,6.424,25.06308,0.137,51.99,59.61,33.79,35.59
"2016-11-26 13:30:00",263662,0.44,152.5,5.949,54.79,200.2231,0,869.5916,0,-2.474,3.17,193,4.713,6.432,19.03975,0.098,51.99,59.61,33.79,35.59
"2016-11-26 13:40:00",263663,0.585,155.9,5.979,54.48,91.08482,0,869.6118,0.5,-2.729,3.173,190,4.731,6.465,14.21353,0.159,51.99,59.67,33.79,35.6
"2016-11-26 13:50:00",263664,0.667,93.2,6.034,53.19,93.54473,0,869.5992,0,-2.082,3.166,205,4.74,6.474,13.33526,0.144,51.99,59.67,33.79,35.6
"2016-11-26 14:00:00",263665,0.625,26.88,5.803,53.37,158.6851,0.5,869.5208,0,-3.11,3.177,192,4.763,6.465,8.422397,0.083,51.94,59.67,33.77,35.6
"2016-11-26 14:10:00",263666,0.493,45.11,5.818,54.08,54.04354,0,869.4172,0,-2.444,3.172,220,4.774,6.462,8.468719,0.157,51.99,59.61,33.79,35.59
"2016-11-26 14:20:00",263667,0.677,15.14,5.756,53.72,63.42381,0,869.2594,0,-3.257,3.179,191,4.75,6.483,9.670436,0.152,51.99,59.67,33.79,35.6
"2016-11-26 14:30:00",263668,0.333,25.34,5.986,50.6,68.45249,0,868.9625,0,-2.777,3.173,201,4.72,6.485,9.856414,0.144,51.99,59.61,33.79,35.59
"2016-11-26 14:40:00",263669,0.462,51.76,5.984,50.49,54.5245,0,868.765,0,-2.503,3.172,228,4.722,6.467,7.037136,0.128,51.94,59.67,33.77,35.6
"2016-11-26 14:50:00",263670,0.409,357,5.78,51.07,46.67205,0,868.664,0,-2.807,3.175,216,4.694,6.433,5.657777,0.121,51.99,59.67,33.79,35.6
"2016-11-26 15:00:00",263671,0.433,313.4,5.36,54.51,41.49986,0,868.7735,0,-2.736,3.178,208,4.672,6.437,4.763452,0.115,51.94,59.61,33.77,35.59
"2016-11-26 15:10:00",263672,0.314,282.7,4.743,57.41,39.33821,0,868.8851,0,-3.117,3.184,203,4.692,6.466,4.304918,0.109,51.94,59.61,33.77,35.59
"2016-11-26 15:20:00",263673,0.345,301.2,4.547,59.46,52.79943,0,869.2264,0,-3.042,3.184,225,4.697,6.475,6.563485,0.123,51.94,59.61,33.77,35.59
"2016-11-26 15:30:00",263674,0.313,351.9,4.464,59.58,60.39667,0,869.4286,0,-3.32,3.187,203,4.697,6.485,8.227094,0.136,51.94,59.61,33.77,35.59
"2016-11-26 15:40:00",263675,0.329,358.1,4.434,60.21,45.96873,0.5,869.6223,0,-1.128,3.165,280,4.698,6.42,6.298236,0.137,51.94,59.61,33.77,35.59
"2016-11-26 15:50:00",263676,0.466,353.2,4.082,63.31,24.65202,0,869.8814,0,-1.2,3.171,278,4.714,6.385,2.925668,0.118,51.94,59.61,33.77,35.59
"2016-11-26 16:00:00",263677,0.554,350.9,3.47,66.92,22.5946,0,870.2921,0,-1.21,3.171,276,4.738,6.407,2.656864,0.117,51.94,59.61,33.77,35.59
"2016-11-26 16:10:00",263678,0.669,99.5,3.814,63.11,21.09846,0,870.4142,0,-1.851,3.176,244,4.759,6.442,3.183915,0.151,51.94,59.61,33.77,35.59
"2016-11-26 16:20:00",263679,0.684,134.8,3.877,61.05,14.12154,0,870.3593,0,-1.507,3.174,257,4.779,6.459,2.145481,0.15,51.94,59.56,33.77,35.58
"2016-11-26 16:30:00",263680,1.009,127.5,3.712,57.73,4.627409,0,870.3975,0,-2.013,3.178,206,4.804,6.469,0.4700522,0.101,51.94,59.61,33.77,35.59
"2016-11-26 16:40:00",263681,1.356,150,3.917,50.6,0.8099083,0,870.1703,0,-1.686,3.174,225,4.804,6.473,0.04548963,0.032,51.94,59.56,33.77,35.58
"2016-11-26 16:50:00",263682,1.011,141,3.924,49.86,0,0,870.3676,0,-1.839,3.176,219,4.803,6.474,0,0,51.94,59.61,33.77,35.59
"2016-11-26 17:00:00",263683,0.956,146,3.805,52.01,0,0,870.5075,0,-1.714,3.176,228,4.822,6.475,0,0,51.94,59.61,33.77,35.59
"2016-11-26 17:10:00",263684,1.462,151.1,3.869,54.07,0,0,870.5212,0,-1.662,3.174,249,4.855,6.475,0,0,51.94,59.61,33.77,35.59
"2016-11-26 17:20:00",263685,1.028,148.5,3.889,57.63,0,0,870.5612,0,-2.039,3.177,245,4.86,6.477,0,0,51.94,59.61,33.77,35.59
"2016-11-26 17:30:00",263686,1.349,158.8,4.075,60.7,0,0,870.6413,0,-2.165,3.178,226,4.858,6.486,0,0,51.94,59.61,33.77,35.59
"2016-11-26 17:40:00",263687,0.997,148.8,4.089,62.04,0,0,870.5912,0,-2.239,3.178,204,4.833,6.482,0,0,51.88,59.61,33.76,35.59
"2016-11-26 17:50:00",263688,0.88,164.2,4.103,62.69,0,0,870.5514,0,-2.114,3.177,196,4.832,6.478,0,0,51.94,59.56,33.77,35.58
"2016-11-26 18:00:00",263689,1.106,137.6,4.343,62.28,0,0,870.6651,0,-2.163,3.176,197,4.84,6.458,0,0,51.94,59.61,33.77,35.59
"2016-11-26 18:10:00",263690,1.021,144.8,4.446,63.01,0,0,870.5134,0,-2.112,3.175,206,4.856,6.459,0,0,51.94,59.56,33.77,35.58
"2016-11-26 18:20:00",263691,1.385,161,4.613,63.6,0,0,870.2037,0,-2.061,3.174,200,4.894,6.457,0,0,51.94,59.61,33.77,35.59
"2016-11-26 18:30:00",263692,1.422,155.8,4.799,64.36,0,0,870.1741,0,-1.908,3.171,195,4.913,6.463,0,0,51.94,59.56,33.77,35.58
"2016-11-26 18:40:00",263693,1.006,155.1,4.863,65.22,0,0,870.0646,0,-2.11,3.173,208,4.916,6.446,0,0,51.94,59.56,33.77,35.58
"2016-11-26 18:50:00",263694,0.799,143.4,4.889,65.39,0,0,870.0773,0,-1.681,3.169,214,4.916,6.439,0,0,51.88,59.56,33.76,35.58
"2016-11-26 19:00:00",263695,0.46,98.4,4.663,66.89,0,0,870.2311,0,-1.86,3.173,221,4.916,6.45,0,0,51.94,59.56,33.77,35.58
"2016-11-26 19:10:00",263696,0.706,117.4,4.159,68.67,0,0,870.0963,0,-1.46,3.171,250,4.916,6.46,0,0,51.88,59.56,33.76,35.58
"2016-11-26 19:20:00",263697,0.748,153.3,4.207,68.31,0,0,869.9171,0,-0.955,3.165,293,4.916,6.462,0,0,51.88,59.56,33.76,35.58
"2016-11-26 19:30:00",263698,0.737,157.3,4.122,68.66,0,0,869.8118,0,-1.761,3.173,275,4.916,6.443,0,0,51.88,59.56,33.76,35.58
"2016-11-26 19:40:00",263699,0.482,60.59,3.965,70.14,0,0,869.8139,0,-2.671,3.188,228,4.916,6.417,0,0,51.88,59.56,33.76,35.58
"2016-11-26 19:50:00",263700,0.452,325.3,3.201,72.62,0,0,869.8055,0,-2.192,3.183,234,4.916,6.389,0,0,51.88,59.56,33.76,35.58
"2016-11-26 20:00:00",263701,0.482,127.4,3.106,73.74,0,0,869.7781,0,-1.665,3.179,243,4.916,6.39,0,0,51.88,59.5,33.76,35.56
"2016-11-26 20:10:00",263702,0.313,129.9,3.397,72.53,0.3105985,0,869.5211,0,-2.769,3.186,208,4.916,6.388,0.1023526,0.225,51.94,59.56,33.77,35.58
"2016-11-26 20:20:00",263703,0.381,86.9,3.868,72.54,0.5779492,0,86
"2016-11-26 20:20:00",263703,0.381,86.9,3.868,72.54,0.5779492,0,869.6011,0,-3.022,3.188,208,4.916,6.388,0.3790836,0.612,51.94,59.5,33.77,35.56
"2016-11-26 20:30:00",263704,0.4,55.1,3.267,74.04,0.01179488,0,869.5505,0,-2.72,3.189,209,4.916,6.388,0,0,51.88,59.56,33.76,35.58
"2016-11-26 20:40:00",263705,0.29,44.85,3.289,75.68,0.06683765,0,869.4304,0,-2.972,3.19,198,4.916,6.388,0.1061434,0.354,51.88,59.56,33.76,35.58
"2016-11-26 20:50:00",263706,0.452,102.2,3.478,78.09,0,0,869.3714,0,-2.922,3.189,193,4.916,6.388,0.2350319,0,51.88,59.56,33.76,35.58
"2016-11-26 21:00:00",263707,0.495,345.3,3.158,84.4,0,0.5,869.2618,0,-3.777,3.201,183,4.916,6.388,0,0,51.88,59.56,33.76,35.58
"2016-11-26 21:10:00",263708,0.474,337.1,2.701,89.6,0,0,869.5105,0,-2.721,3.194,193,4.916,6.388,0.0416992,0,51.88,59.56,33.76,35.58
"2016-11-26 21:20:00",263709,0.235,343.6,2.008,93.6,0,0,869.5211,0,-2.419,3.194,195,4.916,6.393,0,0,51.88,59.5,33.76,35.56
"2016-11-26 21:30:00",263710,0.09,57.03,1.852,96.6,0,0,869.5189,0,-3.071,3.2,191,4.916,6.409,0,0,51.82,59.56,33.75,35.58
"2016-11-26 21:40:00",263711,0.171,127.5,1.825,99.7,0,0,869.3904,0,-2.971,3.199,206,4.916,6.427,0.09098008,0,51.88,59.5,33.76,35.56
"2016-11-26 21:50:00",263712,0.212,103.9,1.864,100,0,0,869.5168,0,-2.068,3.19,204,4.916,6.431,0.2274502,0,51.88,59.56,33.76,35.58
"2016-11-26 22:00:00",263713,0.147,313.1,1.898,100,0,0,869.5316,0,-2.619,3.195,203,4.916,6.438,0.2350319,0,51.82,59.56,33.75,35.58
"2016-11-26 22:10:00",263714,0.085,296.9,1.651,100,0,0,869.5231,0.5,-2.067,3.192,204,4.916,6.458,0.03032669,0,51.88,59.56,33.76,35.58
"2016-11-26 22:20:00",263715,0.118,65.29,1.408,100,0,0,869.5379,0.5,-2.668,3.199,204,4.916,6.472,0,0,51.94,59.5,33.77,35.56
"2016-11-26 22:30:00",263716,0.215,100.3,1.459,100,0,0,869.3377,0,-2.569,3.197,205,4.916,6.452,0.1175159,0,51.88,59.5,33.76,35.56
"2016-11-26 22:40:00",263717,0.163,175.7,1.567,100,0.1179488,0,869.1144,0.5,-3.222,3.2,188,4.916,6.458,0.2350319,0.28,51.99,59.5,33.79,35.56
"2016-11-26 22:50:00",263718,0.344,49.7,2.552,100,1.167693,0,869.0659,0,-2.973,3.193,202,4.916,6.464,1.065225,0.916,51.99,59.56,33.79,35.58
"2016-11-26 23:00:00",263719,0.2,160.3,2.943,100,0.6212003,0,868.8868,0.5,-2.371,3.186,203,4.929,6.464,0.6027462,0.983,52.16,59.5,33.83,35.56
"2016-11-26 23:10:00",263720,0.406,40.73,3.207,100,0.389236,0,869.0154,0,-2.521,3.187,204,4.931,6.468,0.4662786,1.326,52.27,59.56,33.85,35.58
"2016-11-26 23:20:00",263721,0.272,69.54,3.17,100,0.03931661,0,869.0154,0.5,-3.526,3.197,193,4.928,6.456,0.299478,0.273,52.32,59.56,33.87,35.58
"2016-11-26 23:30:00",263722,0.317,350.5,3.089,100,0,0,869.0006,0,-3.729,3.201,189,4.926,6.455,0.1819608,0,52.44,59.56,33.89,35.58
"2016-11-26 23:40:00",263723,0.333,327.3,2.329,100,0,0,869.0217,0.5,-2.371,3.192,216,4.923,6.439,0,0,52.49,59.61,33.91,35.59
"2016-11-26 23:50:00",263724,0.294,300.8,1.976,100,0,0,869.2934,0,-3.275,3.201,196,4.921,6.41,0,0,52.66,59.61,33.95,35.59
